Humidity-temperature Sensor

Selected Measurement Type: Air Temperature

 
Air Temperature [°C]     6 entries per hour
Showing data from 11/19/2022 (00:00:00 Z) to 11/16/2022 (00:01:00 Z)
Previous Next [ Day | 3-Days | 7-Days ]
First Last
Prev [ Day | 3-Days | 7-Days ] Next
First Last

Start Time:     :
End Time:     :     
Time (in GMT) :00 :50 :40 :30 :20 :10
Previous Next [ Day | 3-Days | 7-Days ]
First Last
Prev [ Day | 3-Days | 7-Days ] Next
First Last


123 => good data
MM => data is determined as missing
-- => data not received/configured
Back to Top Back to Top
11/19/2022 00:00 to 23:10 24.53 24.85 24.99 24.80 24.70 24.84
11/18/2022 23:00 to 22:10 24.73 24.59 24.68 24.55 24.46 24.58
11/18/2022 22:00 to 21:10 24.40 24.71 24.79 24.59 24.90 24.74
11/18/2022 21:00 to 20:10 24.75 24.95 25.03 25.08 25.04 25.18
11/18/2022 20:00 to 19:10 25.28 25.37 25.24 25.10 25.15 25.20
11/18/2022 19:00 to 18:10 25.28 25.05 25.08 24.98 25.13 25.12
11/18/2022 18:00 to 17:10 24.99 24.90 24.81 24.85 24.67 24.62
11/18/2022 17:00 to 16:10 24.79 24.98 24.71 24.76 24.74 24.54
11/18/2022 16:00 to 15:10 24.30 24.36 24.34 24.33 24.18 24.06
11/18/2022 15:00 to 14:10 24.09 24.23 24.14 23.94 24.04 24.05
11/18/2022 14:00 to 13:10 23.81 23.70 23.70 23.74 23.89 23.79
11/18/2022 13:00 to 12:10 24.15 23.99 23.93 23.73 23.99 24.15
11/18/2022 12:00 to 11:10 24.07 24.23 23.87 24.08 23.79 24.13
11/18/2022 11:00 to 10:10 24.17 24.24 24.10 24.25 24.22 24.40
11/18/2022 10:00 to 9:10 24.18 24.40 24.07 24.19 24.34 24.04
11/18/2022 09:00 to 8:10 24.12 24.08 24.11 24.08 23.97 24.01
11/18/2022 08:00 to 7:10 24.26 24.37 24.42 24.48 24.57 24.59
11/18/2022 07:00 to 6:10 24.84 24.64 24.90 24.87 24.96 24.75
11/18/2022 06:00 to 5:10 24.68 24.55 24.74 24.69 24.74 24.89
11/18/2022 05:00 to 4:10 24.76 24.71 25.09 24.81 25.02 24.89
11/18/2022 04:00 to 3:10 24.87 24.61 25.09 24.96 24.82 24.96
11/18/2022 03:00 to 2:10 24.88 25.02 25.10 25.15 24.94 25.07
11/18/2022 02:00 to 1:10 24.97 24.92 24.91 24.76 24.95 24.91
11/18/2022 01:00 to 0:10 24.89 24.87 24.87 24.91 25.02 24.88
11/18/2022 00:00 to 23:10 24.96 24.76 24.84 24.75 24.69 24.64
11/17/2022 23:00 to 22:10 24.83 24.82 24.95 24.99 25.12 25.04
11/17/2022 22:00 to 21:10 25.03 25.11 25.31 25.48 25.24 24.89
11/17/2022 21:00 to 20:10 25.37 25.27 25.46 25.21 25.09 24.92
11/17/2022 20:00 to 19:10 24.74 24.77 24.70 25.17 25.31 25.29
11/17/2022 19:00 to 18:10 25.28 25.21 25.02 25.02 25.02 25.09
11/17/2022 18:00 to 17:10 24.94 25.07 25.09 25.18 25.26 24.87
11/17/2022 17:00 to 16:10 24.87 24.84 24.65 24.83 24.40 24.65
11/17/2022 16:00 to 15:10 24.78 24.51 24.67 24.80 24.79 24.96
11/17/2022 15:00 to 14:10 25.19 25.33 25.36 25.28 25.17 25.13
11/17/2022 14:00 to 13:10 25.10 25.01 25.23 25.03 24.94 24.92
11/17/2022 13:00 to 12:10 24.99 24.87 24.86 24.87 24.74 24.73
11/17/2022 12:00 to 11:10 24.74 24.72 24.71 24.76 24.72 24.81
11/17/2022 11:00 to 10:10 24.69 24.72 24.77 24.74 24.90 24.84
11/17/2022 10:00 to 9:10 24.89 24.83 24.65 24.69 24.69 24.49
11/17/2022 09:00 to 8:10 24.67 24.91 24.68 24.52 24.59 24.62
11/17/2022 08:00 to 7:10 24.69 24.76 24.83 24.63 24.62 24.76
11/17/2022 07:00 to 6:10 24.71 24.72 24.79 24.68 25.00 24.88
11/17/2022 06:00 to 5:10 24.99 24.74 24.63 24.65 24.51 24.58
11/17/2022 05:00 to 4:10 24.88 25.01 24.89 25.02 24.94 24.65
11/17/2022 04:00 to 3:10 24.71 24.71 24.44 24.50 24.66 24.42
11/17/2022 03:00 to 2:10 24.48 24.22 24.35 24.50 24.46 24.60
11/17/2022 02:00 to 1:10 24.54 24.71 24.97 24.70 24.63 24.45
11/17/2022 01:00 to 0:10 24.36 24.44 24.46 24.69 24.72 24.65
11/17/2022 00:00 to 23:10 24.85 25.08 25.06 25.42 24.94 25.15
11/16/2022 23:00 to 22:10 25.39 25.48 25.29 25.34 25.28 25.22
11/16/2022 22:00 to 21:10 25.32 25.28 25.23 24.94 25.69 25.28
11/16/2022 21:00 to 20:10 25.43 25.14 25.26 25.23 25.02 25.10
11/16/2022 20:00 to 19:10 25.13 24.99 24.83 24.99 24.80 24.93
11/16/2022 19:00 to 18:10 25.29 25.47 25.15 25.24 25.02 25.08
11/16/2022 18:00 to 17:10 24.81 24.76 25.11 24.94 24.83 24.71
11/16/2022 17:00 to 16:10 24.54 24.66 25.05 24.88 25.06 25.11
11/16/2022 16:00 to 15:10 25.13 25.00 24.77 25.03 24.99 24.88
11/16/2022 15:00 to 14:10 24.75 24.63 24.73 24.81 24.71 24.60
11/16/2022 14:00 to 13:10 24.51 24.51 24.62 24.51 24.51 24.56
11/16/2022 13:00 to 12:10 24.59 24.65 24.73 24.66 24.78 24.79
11/16/2022 12:00 to 11:10 24.91 24.84 24.58 24.74 24.52 24.46
11/16/2022 11:00 to 10:10 24.79 24.56 24.51 24.43 24.49 24.49
11/16/2022 10:00 to 9:10 24.51 24.76 24.88 24.80 24.99 24.90
11/16/2022 09:00 to 8:10 25.00 25.01 25.10 25.13 25.02 25.12
11/16/2022 08:00 to 7:10 25.18 25.01 25.04 25.12 25.14 25.16
11/16/2022 07:00 to 6:10 -- -- -- -- -- --
11/16/2022 06:00 to 5:10 25.51 25.64 25.29 25.60 25.55 25.67
11/16/2022 05:00 to 4:10 25.56 25.49 25.51 25.49 25.40 25.30
11/16/2022 04:00 to 3:10 25.47 25.38 25.48 25.49 25.46 25.64
11/16/2022 03:00 to 2:10 25.74 25.57 25.48 25.83 25.49 25.53
11/16/2022 02:00 to 1:10 25.65 25.46 25.53 25.54 25.50 25.71
11/16/2022 01:00 to 0:10 25.83 25.86 25.70 25.55 25.67 25.61